User: anonymous   Login
Location: Baix
(44.7118°N, 4.7648°E)
Time: 03:29:48
(UTC+00:00)
Language:

Cosmos 1655 Rocket - Orbit

View from above orbital plane
View from above orbital plane
View from above satellite
View from above satellite

Ground track
Ground track

The orbit data is extracted from the following two-line orbital elements,

1 15752U 85041B   20304.10081411 -.00000087 +00000-0 -11029-3 0  9996
2 15752 082.9460 118.5697 0023264 308.9143 050.9937 13.73114640774532
Epoch (UTC): 30 October 2020 02:25:10
Eccentricity: 0.0023264
inclination: 82.9460°
perigee height: 971 km
apogee height: 1005 km
right ascension of ascending node: 118.5697°
argument of perigee: 308.9143°
revolutions per day: 13.73114640
mean anomaly at epoch: 50.9937°
orbit number at epoch: 77453

The dashed part of the orbit path shows where the satellite is in the earth's shadow,  

DLR